Overview Statistics Trail Chart Weather Telemetry Raw packets
 

This is the latest recevied weather packets stored in our database for station/object 4S6DRJ-13. If no packets are shown the sender has not sent any weather packets the latest 10 day(s).

<< 391 392 393 394 395 396 397 >>
Time Temp. Humidity Pressure Rain* Wind** Luminosity Snow
1787871771 27.78° C 86% 1008.7 hPa 0 mm 0.89 m/s, 216° 0 W/m² -
1787871709 27.78° C 87% 1008.4 hPa 0 mm 1.34 m/s, 154° 0 W/m² -
1787871648 27.78° C 87% 1008.7 hPa 0 mm 0.89 m/s, 224° 0 W/m² -
1787871588 27.78° C 87% 1008.6 hPa 0 mm 1.34 m/s, 238° 0 W/m² -
1787871527 27.78° C 87% 1008.5 hPa 0 mm 1.34 m/s, 235° 0 W/m² -
1787871466 27.78° C 87% 1008.6 hPa 0 mm 0.45 m/s, 245° 0 W/m² -
1787871404 27.78° C 87% 1008.5 hPa 0 mm 0.45 m/s, 221° 0 W/m² -
1787871343 27.78° C 87% 1008.6 hPa 0 mm 1.79 m/s, 236° 0 W/m² -
1787871282 27.78° C 87% 1008.5 hPa 0 mm 2.68 m/s, 232° 0 W/m² -
1787871222 27.78° C 87% 1008.6 hPa 0 mm 0.89 m/s, 200° 0 W/m² -
1787871160 27.78° C 87% 1008.8 hPa 0 mm 0.89 m/s, 248° 0 W/m² -
1787871099 27.78° C 87% 1008.7 hPa 0 mm 0 m/s 0 W/m² -
1787871038 27.78° C 87% 1008.5 hPa 0 mm 0.45 m/s, 249° 0 W/m² -
1787870977 27.78° C 87% 1008.6 hPa 0 mm 0 m/s 0 W/m² -
1787870916 27.78° C 87% 1008.6 hPa 0 mm 0.45 m/s, 263° 0 W/m² -
1787870855 27.78° C 87% 1008.6 hPa 0 mm 0.89 m/s, 218° 0 W/m² -
1787870795 27.78° C 87% 1008.4 hPa 0 mm 1.34 m/s, 231° 0 W/m² -
1787870733 27.78° C 87% 1008.8 hPa 0 mm 0.45 m/s, 266° 0 W/m² -
1787870672 27.78° C 86% 1008.5 hPa 0 mm 0.45 m/s, 235° 0 W/m² -
1787870611 27.78° C 86% 1008.4 hPa 0 mm 0.89 m/s, 219° 0 W/m² -
1787870551 27.78° C 86% 1008.7 hPa 0 mm 0.89 m/s, 253° 0 W/m² -
1787870489 27.78° C 86% 1008.6 hPa 0 mm 0.45 m/s, 197° 0 W/m² -
1787870428 27.78° C 86% 1008.5 hPa 0 mm 0.89 m/s, 250° 0 W/m² -
1787870367 27.78° C 86% 1008.6 hPa 0 mm 1.34 m/s, 263° 0 W/m² -
1787870306 27.78° C 86% 1008.8 hPa 0 mm 1.34 m/s, 208° 0 W/m² -

* Rain latest hour (hover to see other rain measurements)
** Current wind speed in m/s (hover to see current wind gust speed)